CW0641 Weather Reports


Display with metric or nautical units.
time (UTC)temp
F
wind
direction
speed
MPH
gust
MPH
rain 1hr
in
rain 24hr
in
rain mn
in
humidity
%
barometer
mb
20260504060116 54 304 9.0 21.0 0.00 0.00 0.00 71 1013.7
20260504050111 53 242 7.0 17.0 0.00 0.00 0.00 82 1013.4
20260504045605 53 233 7.0 17.0 0.00 0.00 0.00 83 1013.3
20260504044605 53 249 7.0 14.0 0.00 0.00 0.00 83 1013.3
20260504044105 53 343 8.0 18.0 0.00 0.00 0.00 83 1013.3
20260504043608 53 257 8.0 18.0 0.00 0.00 0.00 82 1013.3
20260504043106 53 295 7.0 13.0 0.00 0.00 0.00 81 1013.3
20260504042104 53 268 7.0 17.0 0.00 0.00 0.00 82 1013.3
20260504041607 53 241 8.0 17.0 0.00 0.00 0.00 81 1013.2
20260504041104 53 273 7.0 15.0 0.00 0.00 0.00 81 1013.3
20260504040605 53 238 7.0 15.0 0.00 0.00 0.00 81 1013.1
20260504035605 53 260 6.0 15.0 0.00 0.00 0.00 80 1013.0
20260504035104 53 254 6.0 12.0 0.00 0.00 0.00 81 1013.1
20260504034604 53 281 7.0 12.0 0.00 0.00 0.00 80 1013.0
20260504034103 53 322 7.0 14.0 0.00 0.00 0.00 80 1013.1
20260504033604 52 247 8.0 14.0 0.00 0.00 0.00 79 1013.0
20260504033105 52 296 8.0 14.0 0.00 0.00 0.00 79 1012.8
20260504032605 52 296 7.0 14.0 0.00 0.00 0.00 79 1012.5
20260504031108 51 326 7.0 14.0 0.00 0.00 0.00 80 1012.6
20260504030606 51 309 7.0 15.0 0.00 0.00 0.00 81 1012.8
20260504025606 51 263 6.0 12.0 0.00 0.00 0.00 81 1012.9
20260504024606 51 281 7.0 14.0 0.00 0.00 0.00 82 1012.6
20260504024416 51 279 6.0 11.0 0.00 0.00 0.00 82 1012.8
20260504023603 51 277 5.0 13.0 0.00 0.00 0.00 83 1012.8
20260504023417 51 301 6.0 13.0 0.00 0.00 0.00 83 1012.8
20260504022558 51 291 6.0 10.0 0.00 0.00 0.00 83 1012.9
20260504022102 51 293 6.0 8.0 0.00 0.00 0.00 83 1012.8
20260504021547 51 293 6.0 13.0 0.00 0.00 0.00 83 1012.8
20260504021039 51 317 6.0 13.0 0.00 0.00 0.00 84 1012.8
20260504020533 51 283 5.0 11.0 0.00 0.00 0.00 84 1012.8
20260504015528 51 252 5.0 15.0 0.00 0.00 0.00 84 1012.6
20260504015027 51 300 5.0 15.0 0.00 0.00 0.00 84 1012.6
20260504014526 51 287 5.0 11.0 0.00 0.00 0.00 84 1012.8
20260504014021 51 290 6.0 11.0 0.00 0.00 0.00 84 1012.6
20260504013521 51 307 6.0 11.0 0.00 0.00 0.00 84 1012.6
20260504012520 51 303 5.0 11.0 0.00 0.00 0.00 85 1012.6
20260504012022 51 313 5.0 11.0 0.00 0.00 0.00 85 1012.6
20260504011526 51 286 4.0 11.0 0.00 0.00 0.00 85 1012.8
20260504011022 51 265 5.0 12.0 0.00 0.00 0.00 85 1012.8
20260504010523 51 265 6.0 12.0 0.00 0.00 0.00 85 1012.9
20260504010021 51 290 4.0 11.0 0.00 0.00 0.00 85 1013.0
20260504005519 51 277 4.0 12.0 0.00 0.00 0.00 85 1012.9
20260504004512 51 263 4.0 9.0 0.00 0.00 0.00 86 1012.9
20260504004010 51 311 5.0 12.0 0.00 0.00 0.00 86 1012.9
20260504003513 51 293 6.0 12.0 0.00 0.00 0.00 86 1012.9
20260504003013 51 313 5.0 11.0 0.00 0.00 0.00 86 1012.8
20260504002511 51 232 5.0 11.0 0.00 0.00 0.00 87 1012.9
20260504001511 51 285 6.0 12.0 0.00 0.00 0.00 87 1012.9
20260504001009 51 296 6.0 12.0 0.00 0.00 0.00 87 1012.9
20260504000514 51 286 6.0 12.0 0.00 0.00 0.00 87 1012.9
20260504000011 51 261 7.0 13.0 0.00 0.00 0.00 88 1012.9
20260503235507 51 290 7.0 13.0 0.00 0.00 0.00 88 1012.9
20260503235008 51 302 6.0 12.0 0.00 0.00 0.00 88 1013.0
20260503234511 51 313 7.0 13.0 0.00 0.00 0.00 88 1012.9
20260503233008 51 265 9.0 15.0 0.00 0.00 0.00 89 1012.8
20260503232509 51 257 9.0 17.0 0.00 0.00 0.00 89 1012.8
20260503232002 52 288 10.0 17.0 0.00 0.00 0.00 89 1012.6
20260503231501 52 294 11.0 19.0 0.00 0.00 0.00 90 1012.9
20260503231004 52 335 11.0 19.0 0.00 0.00 0.00 90 1012.9
20260503230504 52 271 9.0 19.0 0.00 0.00 0.00 90 1012.8
20260503230001 53 325 9.0 17.0 0.00 0.00 0.00 90 1012.9
20260503225504 53 325 10.0 17.0 0.00 0.00 0.00 90 1012.8
20260503225001 53 331 10.0 16.0 0.00 0.00 0.00 90 1012.8
20260503224454 53 337 10.0 19.0 0.00 0.00 0.00 90 1012.6
20260503223955 53 334 11.0 19.0 0.00 0.00 0.00 89 1012.8
20260503222449 54 304 9.0 16.0 0.00 0.00 0.00 89 1012.6
20260503221950 54 297 9.0 16.0 0.00 0.00 0.00 89 1012.8
20260503221443 54 305 9.0 18.0 0.00 0.00 0.00 88 1012.9
20260503220946 54 284 10.0 19.0 0.00 0.00 0.00 88 1013.0
20260503220447 54 319 10.0 20.0 0.00 0.00 0.00 87 1013.2
20260503215946 54 277 10.0 20.0 0.00 0.00 0.00 87 1013.1
20260503215443 54 344 10.0 18.0 0.00 0.00 0.00 87 1013.2
20260503214945 54 221 9.0 16.0 0.00 0.00 0.00 87 1013.3
20260503213944 54 313 10.0 22.0 0.00 0.00 0.00 86 1013.2
20260503213443 54 315 9.0 22.0 0.00 0.00 0.00 86 1013.2
20260503212944 54 300 10.0 18.0 0.00 0.00 0.00 86 1013.1
20260503212442 54 302 11.0 19.0 0.00 0.00 0.00 86 1013.1
20260503211945 54 340 9.0 19.0 0.00 0.00 0.00 86 1013.2
20260503211442 54 315 8.0 14.0 0.00 0.00 0.00 86 1013.2
20260503210942 54 322 8.0 15.0 0.00 0.00 0.00 86 1013.3
20260503210442 54 264 9.0 15.0 0.00 0.00 0.00 86 1013.2
20260503205942 54 299 9.0 20.0 0.00 0.00 0.00 86 1013.2
20260503204942 54 344 9.0 16.0 0.00 0.00 0.00 87 1013.3
20260503204442 54 267 9.0 18.0 0.00 0.00 0.00 87 1013.2
20260503203445 54 275 9.0 20.0 0.00 0.00 0.00 87 1013.4
20260503202944 54 281 10.0 20.0 0.00 0.00 0.00 87 1013.3
20260503202440 54 273 10.0 18.0 0.00 0.00 0.00 86 1013.2
20260503201939 54 338 10.0 19.0 0.00 0.00 0.00 86 1013.2
20260503200941 54 313 10.0 18.0 0.00 0.00 0.00 87 1013.2
20260503200438 54 295 10.0 18.0 0.00 0.00 0.00 87 1013.2
20260503195436 54 321 11.0 22.0 0.00 0.00 0.00 87 1013.2
20260503194933 54 344 10.0 19.0 0.00 0.00 0.00 87 1013.3
20260503194433 55 295 11.0 22.0 0.00 0.00 0.00 87 1013.2
20260503193930 55 282 12.0 22.0 0.00 0.00 0.00 87 1013.1
20260503192932 55 281 11.0 21.0 0.00 0.00 0.00 88 1013.2
20260503191929 55 311 11.0 19.0 0.00 0.00 0.00 87 1013.0
20260503191426 55 267 9.0 18.0 0.00 0.00 0.00 88 1013.0
20260503190927 55 279 10.0 22.0 0.00 0.00 0.00 88 1013.0
20260503190428 55 273 11.0 22.0 0.00 0.00 0.00 88 1012.9
20260503185927 55 321 13.0 27.0 0.00 0.00 0.00 88 1012.5
20260503185426 55 320 13.0 27.0 0.00 0.00 0.00 88 1012.6
20260503184926 55 325 11.0 21.0 0.00 0.00 0.00 88 1012.6
20260503184428 55 262 9.0 19.0 0.00 0.00 0.00 88 1012.6
20260503183926 56 338 10.0 20.0 0.00 0.00 0.00 88 1012.8
20260503183429 56 315 10.0 20.0 0.00 0.00 0.00 88 1012.6
20260503182927 56 328 12.0 22.0 0.00 0.00 0.00 88 1012.8
20260503181923 56 351 10.0 24.0 0.00 0.00 0.00 87 1012.6
20260503181422 56 262 9.0 18.0 0.00 0.00 0.00 87 1012.5
20260503180927 56 235 10.0 20.0 0.00 0.00 0.00 87 1012.4
20260503175921 56 321 12.0 21.0 0.00 0.00 0.00 87 1012.1
20260503175422 56 9 12.0 21.0 0.00 0.00 0.00 87 1012.0
20260503174422 56 323 12.0 20.0 0.00 0.00 0.00 88 1011.8
20260503173919 57 249 12.0 22.0 0.00 0.00 0.00 88 1011.7
20260503173422 57 296 13.0 23.0 0.00 0.00 0.00 87 1011.6
20260503172920 57 338 12.0 23.0 0.00 0.00 0.00 88 1011.5
20260503172421 58 258 12.0 22.0 0.00 0.00 0.00 88 1011.3
20260503171919 58 282 12.0 21.0 0.00 0.00 0.00 88 1011.3
20260503171411 58 270 10.0 21.0 0.00 0.00 0.00 88 1011.4
20260503170916 58 284 10.0 20.0 0.00 0.00 0.00 88 1011.1
20260503170404 58 347 12.0 24.0 0.00 0.00 0.00 87 1010.9
20260503150856 61 280 10.0 18.0 0.00 0.00 0.00 83 1010.6
20260503131316 65 277 17.0 28.0 0.00 0.00 0.00 70 1009.2
20260503130814 65 290 17.0 28.0 0.00 0.00 0.00 71 1009.2
20260503130315 65 333 16.0 28.0 0.00 0.00 0.00 70 1009.0
20260503110759 68 284 15.0 32.0 0.00 0.00 0.00 71 1008.3
20260503110300 68 281 15.0 32.0 0.00 0.00 0.00 70 1008.3
20260503100243 71 289 12.0 24.0 0.00 0.00 0.00 67 1007.8
20260503090224 72 269 12.0 21.0 0.00 0.00 0.00 51 1007.3
20260503081226 72 267 10.0 20.0 0.00 0.00 0.00 48 1007.2
20260503080723 73 304 10.0 20.0 0.00 0.00 0.00 47 1007.1
20260503080218 73 240 10.0 19.0 0.00 0.00 0.00 46 1006.8
20260503072216 73 247 9.0 19.0 0.00 0.00 0.00 44 1006.5
20260503071715 72 250 8.0 17.0 0.00 0.00 0.00 44 1006.3
20260503071216 72 247 8.0 17.0 0.00 0.00 0.00 44 1006.5
20260503070718 72 252 9.0 21.0 0.00 0.00 0.00 45 1006.3
20260503070215 72 286 8.0 21.0 0.00 0.00 0.00 44 1006.4